[[{"header":{"parameterUnit":"m.s-1","parameterCategory":1,"la1":30.2991,"la2":30.254,"lo1":-89.0895,"lo2":-89.0444,"dy":0.0017,"dx":0.0017,"nx":28,"ny":28,"refTime":"2023-04-25T21:00:00:Z","depth":0,"parameterNumber":2,"parameterNumberName":"U-component_of_WINDS"},"data":[0,0,0,0,0,0,0,0,0,0,0,0,0,0,0,0,0,0,0,0,0,0,0,0,0,0,0,0,0,0,0,0,0,0,0,0,0,0,0,0,0,0,0,0,0,0,0,0,0,0,0,0,0,0,0,0,0,0,-2.4337,-2.4337,0,-2.4251,-2.425,-2.4249,-2.4146,-2.4145,-2.4143,-2.4142,-2.4053,-2.4053,-2.4052,0,0,0,0,0,0,0,0,0,0,0,0,0,-2.4417,-2.4416,-2.4338,-2.4337,-2.4335,-2.4251,-2.425,-2.4249,-2.4147,-2.4145,-2.4143,-2.4141,-2.4054,-2.4053,-2.4052,0,0,0,0,0,0,0,0,0,0,0,0,0,-2.4362,-2.4416,-2.4338,-2.4274,-2.4268,-2.4251,-2.425,-2.4248,-2.4147,-2.4145,-2.4142,-2.414,-2.4054,-2.4053,-2.4052,-2.4091,0,0,-2.4047,-2.4047,0,0,0,0,0,0,0,0,-2.4365,-2.4359,-2.4285,-2.4279,-2.4271,-2.4207,-2.4245,-2.4196,-2.4148,-2.4193,-2.4142,-2.4139,-2.4107,-2.4101,-2.409,-2.4087,-2.4083,-2.4047,-2.4047,-2.4046,-2.4046,0,0,0,0,0,0,0,-2.4369,-2.4362,-2.4303,-2.4284,-2.4276,-2.4251,-2.424,-2.4236,-2.4164,-2.4189,-2.4181,-2.4172,-2.4102,-2.4091,-2.4087,-2.4082,-2.4047,-2.4046,-2.4045,-2.4045,-2.411,-2.4113,0,0,0,0,0,0,-2.4382,-2.4366,-2.4306,-2.4301,-2.4313,-2.4251,-2.424,-2.423,-2.4164,-2.4151,-2.4174,-2.4168,-2.4095,-2.4089,-2.4083,-2.4127,-2.4046,-2.4045,-2.4044,-2.4108,-2.4111,-2.4113,0,0,0,0,0,0,-2.4384,-2.4378,-2.4309,-2.4331,-2.4321,-2.4253,-2.4243,-2.423,-2.4218,-2.4153,-2.414,-2.4176,-2.4093,-2.4085,-2.409,-2.4123,-2.4044,-2.4043,-2.4105,-2.4109,-2.4112,-2.4214,0,0,0,0,0,0,-2.4387,-2.4379,-2.4392,-2.4332,-2.432,-2.4318,-2.4244,-2.423,-2.4216,-2.4207,-2.4151,-2.4139,-2.409,-2.4093,-2.4089,-2.4119,-2.4042,-2.4101,-2.4106,-2.4111,-2.4207,-2.4221,-2.4232,0,0,0,0,0,-2.439,-2.4424,-2.4394,-2.4387,-2.4335,-2.4319,-2.4312,-2.4255,-2.4219,-2.4233,-2.4191,-2.4141,-2.412,-2.4094,-2.4089,-2.4119,-2.4099,-2.4105,-2.4111,-2.4202,-2.4218,-2.4232,0,0,0,0,0,0,-2.4489,-2.4415,-2.438,-2.4395,-2.4365,-2.4302,-2.4317,-2.4273,-2.4252,-2.4244,-2.4174,-2.4162,-2.4177,-2.4148,-2.4121,-2.4156,-2.4102,-2.4107,-2.4174,-2.4189,-2.4201,-2.4207,-2.4041,0,0,0,0,0,-2.4512,-2.4505,-2.4441,-2.4461,-2.4447,-2.4386,-2.4376,-2.4335,-2.43,-2.4287,-2.4245,-2.4214,-2.4201,-2.4193,-2.4176,-2.4203,-2.4191,-2.4222,-2.4234,-2.4245,-2.425,-2.4265,-2.4278,-2.4132,-2.4132,-2.4132,0,0,-2.4561,-2.452,-2.4519,-2.448,-2.4451,-2.4447,-2.4375,-2.4372,-2.4369,-2.4286,-2.4289,-2.4259,-2.4219,-2.4236,-2.4241,-2.4213,-2.4288,-2.4252,-2.4261,-2.426,-2.4272,-2.4286,-2.4298,-2.4136,-2.4135,-2.4135,0,0,-2.4647,-2.4614,-2.4628,-2.4602,-2.456,-2.4519,-2.4523,-2.4468,-2.4444,-2.4446,-2.4385,-2.438,-2.4358,-2.4333,-2.4318,-2.4399,-2.4353,-2.4396,-2.446,-2.4476,-2.4487,-2.4497,-2.4528,-2.454,-2.4401,-2.4401,-2.4401,0,-2.4712,-2.4702,-2.4641,-2.4643,-2.4629,-2.4555,-2.457,-2.4547,-2.4502,-2.4495,-2.4464,-2.4436,-2.4404,-2.4416,-2.4436,-2.4425,-2.4429,-2.4401,-2.449,-2.45,-2.4508,-2.4537,-2.4549,-2.4407,-2.4406,-2.4406,-2.4405,0,-2.4786,-2.4781,-2.4797,-2.4757,-2.4744,-2.4753,-2.4695,-2.4689,-2.4651,-2.4614,-2.4619,-2.4578,-2.4554,-2.4553,-2.4514,-2.4561,-2.4545,-2.4503,-2.4448,-2.4529,-2.4555,-2.4565,-2.4415,-2.4413,-2.4411,-2.441,0,0,-2.493,-2.4858,-2.4865,-2.4847,-2.4797,-2.4792,-2.4799,-2.4776,-2.4774,-2.4746,-2.4751,-2.4736,-2.4698,-2.4681,-2.4639,-2.4652,-2.4722,-2.4609,-2.4607,-2.4633,-2.4774,-2.4806,-2.4819,-2.4692,-2.4694,-2.4695,-2.4777,0,-2.5008,-2.5014,-2.4961,-2.4983,-2.4978,-2.491,-2.4916,-2.4887,-2.4854,-2.4846,-2.4809,-2.48,-2.475,-2.474,-2.475,-2.4712,-2.475,-2.4705,-2.4697,-2.4697,-2.471,-2.4832,-2.4866,-2.4945,-2.4787,-2.4789,-2.479,0,-2.5099,-2.5078,-2.5099,-2.5051,-2.5047,-2.5054,-2.503,-2.5023,-2.499,-2.4965,-2.4948,-2.49,-2.4905,-2.4854,-2.4861,-2.4831,-2.4825,-2.4807,-2.4808,-2.4806,-2.4749,-2.4834,-2.4969,-2.4982,-2.4805,-2.4804,-2.4803,0,-2.5204,-2.5181,-2.5191,-2.5178,-2.5121,-2.5128,-2.5105,-2.5069,-2.506,-2.504,-2.5033,-2.5014,-2.5003,-2.499,-2.494,-2.4906,-2.4954,-2.4897,-2.4935,-2.4936,-2.4947,-2.4947,-2.5084,-2.4943,-2.4942,-2.4942,-2.4942,0,-2.5296,-2.5313,-2.5238,-2.5245,-2.5262,-2.5202,-2.5221,-2.5191,-2.5161,-2.5162,-2.5101,-2.5104,-2.5037,-2.5032,-2.4993,-2.5006,-2.5002,-2.4983,-2.4972,-2.4988,-2.4991,-2.4984,-2.4977,-2.4945,-2.4945,-2.4944,-2.4944,0,-2.5416,-2.5366,-2.5374,-2.5321,-2.5308,-2.5324,-2.5279,-2.5284,-2.5248,-2.525,-2.5247,-2.5191,-2.5183,-2.5132,-2.5111,-2.5085,-2.5113,-2.5091,-2.5125,-2.5118,-2.5159,-2.5157,-2.5296,-2.5312,-2.516,-2.5162,-2.5163,0,-2.5479,-2.549,-2.5439,-2.5436,-2.5416,-2.5411,-2.5401,-2.5344,-2.5337,-2.5302,-2.5312,-2.5299,-2.5285,-2.5276,-2.5234,-2.522,-2.5198,-2.5248,-2.5195,-2.5212,-2.52,-2.5201,-2.5202,-2.5259,-2.5261,-2.5263,-2.5264,0,-2.5596,-2.5572,-2.556,-2.5542,-2.5533,-2.5516,-2.5494,-2.5495,-2.5432,-2.5427,-2.5419,-2.5409,-2.539,-2.5379,-2.5357,-2.5334,-2.529,-2.5281,-2.5289,-2.5306,-2.5326,-2.5318,-2.5157,-2.5278,-2.5277,-2.5275,-2.5275,-2.5274,-2.5689,-2.5697,-2.5664,-2.5655,-2.5633,-2.5616,-2.5619,-2.5584,-2.5576,-2.5556,-2.5523,-2.552,-2.5489,-2.5456,-2.5438,-2.5436,-2.5409,-2.542,-2.5423,-2.5428,-2.5437,-2.5326,-2.5431,-2.5431,-2.543,-2.543,-2.543,0,-2.5805,-2.5781,-2.5773,-2.5746,-2.574,-2.5699,-2.5674,-2.5672,-2.567,-2.5645,-2.5634,-2.5626,-2.5616,-2.5575,-2.5561,-2.5567,-2.5547,-2.5566,-2.5565,-2.5561,-2.546,-2.5455,-2.5583,-2.5583,-2.5583,-2.5583,-2.5583,-2.5583,-2.5864,-2.5876,-2.5849,-2.5851,-2.5827,-2.5824,-2.5814,-2.5798,-2.5778,-2.5772,-2.5764,-2.5737,-2.5707,-2.5691,-2.5681,-2.5669,-2.5667,-2.5694,-2.5675,-2.5582,-2.5568,-2.5553,-2.5549,-2.5693,-2.5693,-2.5776,-2.5777,-2.5777]},{"header":{"parameterUnit":"m.s-1","parameterCategory":1,"la1":30.2991,"la2":30.254,"lo1":-89.0895,"lo2":-89.0444,"dy":0.0017,"dx":0.0017,"nx":28,"ny":28,"refTime":"2023-04-25T21:00:00:Z","depth":0,"parameterNumber":3,"parameterNumberName":"V-component_of_WINDS"},"data":[0,0,0,0,0,0,0,0,0,0,0,0,0,0,0,0,0,0,0,0,0,0,0,0,0,0,0,0,0,0,0,0,0,0,0,0,0,0,0,0,0,0,0,0,0,0,0,0,0,0,0,0,0,0,0,0,0,0,2.3223,2.3223,0,2.3204,2.3204,2.3204,2.3248,2.3249,2.3251,2.3252,2.3224,2.3222,2.322,0,0,0,0,0,0,0,0,0,0,0,0,0,2.3291,2.3289,2.3223,2.3223,2.3222,2.3204,2.3204,2.3203,2.3247,2.3249,2.3251,2.3253,2.3225,2.3223,2.322,0,0,0,0,0,0,0,0,0,0,0,0,0,2.3265,2.3289,2.3223,2.3242,2.3244,2.3204,2.3204,2.3203,2.3247,2.3249,2.3251,2.3253,2.3226,2.3223,2.322,2.3158,0,0,2.321,2.3209,0,0,0,0,0,0,0,0,2.3267,2.3263,2.324,2.3241,2.3243,2.3231,2.3218,2.3188,2.3247,2.3246,2.3252,2.3254,2.3224,2.3221,2.3213,2.3156,2.3155,2.321,2.3208,2.3207,2.3206,0,0,0,0,0,0,0,2.3268,2.3264,2.3215,2.3239,2.3241,2.325,2.3249,2.3212,2.3223,2.3246,2.3249,2.3247,2.3225,2.3216,2.3213,2.3155,2.321,2.3207,2.3206,2.3204,2.3046,2.3044,0,0,0,0,0,0,2.3269,2.3265,2.3216,2.3215,2.326,2.3247,2.3246,2.3232,2.3223,2.3224,2.3245,2.3249,2.322,2.3216,2.3212,2.3137,2.3207,2.3204,2.3202,2.3048,2.3045,2.3043,0,0,0,0,0,0,2.327,2.3264,2.3217,2.3241,2.3235,2.3244,2.3228,2.3231,2.3221,2.3223,2.3224,2.3233,2.3222,2.3216,2.3171,2.3137,2.3203,2.32,2.3051,2.3047,2.3044,2.2989,0,0,0,0,0,0,2.3272,2.3264,2.3242,2.324,2.3234,2.3178,2.3226,2.3229,2.3217,2.3222,2.3212,2.3213,2.3223,2.3176,2.3168,2.3134,2.3197,2.3054,2.3049,2.3045,2.2993,2.2984,2.2975,0,0,0,0,0,2.3274,2.3225,2.324,2.3234,2.3207,2.3176,2.3172,2.3187,2.3214,2.319,2.3192,2.3213,2.3143,2.3171,2.3163,2.3127,2.3056,2.3051,2.3045,2.2997,2.2985,2.2975,0,0,0,0,0,0,2.3219,2.3225,2.3242,2.3192,2.3184,2.3184,2.3154,2.3174,2.3156,2.3161,2.3178,2.3175,2.3126,2.3123,2.3154,2.3066,2.3104,2.3096,2.307,2.3058,2.305,2.305,2.3195,0,0,0,0,0,2.3203,2.3179,2.3185,2.314,2.3135,2.3146,2.3133,2.3145,2.3136,2.3132,2.313,2.3118,2.3093,2.3076,2.3054,2.2995,2.2992,2.2966,2.2957,2.2949,2.2942,2.2909,2.2897,2.3025,2.3025,2.3026,0,0,2.3165,2.3166,2.3149,2.3129,2.3124,2.3097,2.3142,2.3112,2.3092,2.3126,2.3084,2.3083,2.307,2.3018,2.2995,2.3013,2.2906,2.2943,2.2937,2.2933,2.2902,2.289,2.2879,2.3022,2.3022,2.3023,0,0,2.3083,2.3083,2.3045,2.304,2.3033,2.3041,2.3032,2.3029,2.303,2.2989,2.3015,2.299,2.2947,2.2938,2.2927,2.2844,2.2862,2.2836,2.2787,2.2755,2.2744,2.2735,2.2704,2.2692,2.2829,2.2829,2.2829,0,2.3037,2.3,2.3022,2.2991,2.298,2.3015,2.2975,2.2968,2.2953,2.2944,2.2966,2.2914,2.2908,2.2853,2.2833,2.2824,2.2813,2.2835,2.2745,2.2736,2.2728,2.2697,2.2686,2.2826,2.2826,2.2827,2.2827,0,2.2943,2.2917,2.2887,2.2875,2.2861,2.2826,2.284,2.2823,2.2838,2.2843,2.28,2.2795,2.2771,2.276,2.2773,2.2707,2.2718,2.2743,2.278,2.2712,2.2684,2.2672,2.2821,2.2822,2.2823,2.2824,0,0,2.2822,2.2825,2.2813,2.2808,2.2804,2.2783,2.2749,2.273,2.2714,2.2703,2.2673,2.2638,2.266,2.2648,2.2661,2.2633,2.2565,2.266,2.266,2.264,2.249,2.2469,2.2456,2.2579,2.2577,2.2575,2.249,0,2.274,2.2684,2.2703,2.2645,2.262,2.2654,2.2624,2.2617,2.2621,2.2599,2.2603,2.2577,2.261,2.2603,2.2578,2.2579,2.2534,2.2586,2.2548,2.2546,2.2547,2.2441,2.2419,2.2339,2.2479,2.2477,2.2476,0,2.2635,2.2623,2.2563,2.2564,2.2554,2.2527,2.2511,2.2491,2.2483,2.2488,2.2476,2.2495,2.2459,2.25,2.245,2.2484,2.247,2.2469,2.2466,2.246,2.2504,2.2429,2.2314,2.23,2.2459,2.2461,2.2462,0,2.2551,2.2519,2.2479,2.2474,2.2475,2.2455,2.2453,2.2449,2.2436,2.2421,2.2412,2.2393,2.2381,2.2365,2.2376,2.2406,2.2324,2.2366,2.2324,2.2323,2.2302,2.2302,2.2179,2.2298,2.2299,2.2299,2.2299,0,2.2455,2.2416,2.2441,2.2416,2.2373,2.2396,2.2352,2.2355,2.2351,2.2325,2.2353,2.2328,2.2347,2.2323,2.2332,2.2288,2.2283,2.2284,2.2286,2.2279,2.2279,2.2268,2.2272,2.2296,2.2296,2.2297,2.2297,0,2.2351,2.2367,2.2325,2.2331,2.2331,2.2299,2.2302,2.2278,2.2286,2.2253,2.2247,2.2257,2.2231,2.2242,2.2213,2.2219,2.2162,2.2173,2.2165,2.2167,2.2123,2.2126,2.1986,2.1967,2.2101,2.21,2.2099,0,2.2287,2.2258,2.2261,2.2248,2.2246,2.2223,2.2211,2.2232,2.2218,2.2209,2.2185,2.2161,2.2143,2.2099,2.2102,2.208,2.2089,2.2041,2.2085,2.2079,2.2084,2.2085,2.2081,2.2031,2.2029,2.2028,2.2027,0,2.2171,2.2181,2.2163,2.2149,2.2134,2.2123,2.2114,2.2101,2.2122,2.2104,2.2079,2.2065,2.2038,2.2013,2.1994,2.199,2.201,2.2014,2.2003,2.1994,2.1989,2.1988,2.2138,2.2016,2.2017,2.2018,2.2019,2.2019,2.2083,2.2059,2.2058,2.2037,2.2034,2.2025,2.2003,2.2009,2.1989,2.197,2.1984,2.1953,2.1947,2.1924,2.1918,2.1892,2.1911,2.1895,2.189,2.1885,2.1878,2.1997,2.1889,2.189,2.189,2.189,2.189,0,2.1966,2.1968,2.1949,2.1937,2.1921,2.1947,2.1939,2.1922,2.1896,2.189,2.1873,2.1843,2.1819,2.1823,2.1801,2.178,2.1789,2.1773,2.1773,2.1771,2.1864,2.1875,2.1766,2.1766,2.1766,2.1766,2.1766,2.1766,2.1903,2.1863,2.1873,2.1831,2.1833,2.1806,2.1798,2.179,2.1785,2.1752,2.1734,2.1737,2.1734,2.1713,2.1692,2.1693,2.1682,2.1662,2.1666,2.1753,2.1765,2.1776,2.1786,2.166,2.166,2.1575,2.1574,2.1574]}]]